FW8702 Weather Reports


time (UTC)temp
F
wind
direction
speed
knots
gust
knots
rain 1hr
in
rain 24hr
in
rain mn
in
humidity
%
barometer
mb
20260502220033 54 259 0.0 0.0 0.00 0.00 0.00 80 1022.5
20260502214504 54 259 0.0 0.0 0.00 0.00 0.00 79 1022.6
20260502213039 55 259 0.0 0.0 0.00 0.00 0.00 78 1022.5
20260502211604 56 259 0.0 0.0 0.00 0.00 0.00 78 1022.4
20260502210133 56 259 0.0 0.0 0.00 0.00 0.00 77 1022.5
20260502204528 56 259 0.0 0.0 0.00 0.00 0.00 77 1022.6
20260502203057 57 242 0.0 0.0 0.00 0.00 0.00 76 1022.5
20260502201557 58 242 0.0 0.0 0.00 0.00 0.00 76 1022.6
20260502200130 58 242 0.0 0.0 0.00 0.00 0.00 75 1022.4
20260502194523 59 242 0.0 0.0 0.00 0.00 0.00 74 1022.3
20260502193053 60 242 0.0 0.0 0.00 0.00 0.00 72 1022.1
20260502191519 62 242 0.0 0.0 0.00 0.00 0.00 70 1022.1
20260502184513 65 242 0.0 0.0 0.00 0.00 0.00 67 1022.0
20260502183025 66 242 0.0 0.0 0.00 0.00 0.00 64 1021.9
20260502181538 68 242 0.0 0.0 0.00 0.00 0.00 59 1021.9
20260502163046 74 242 0.0 4.3 0.00 0.00 0.00 45 1021.9
20260502161545 75 235 0.0 0.9 0.00 0.00 0.00 43 1022.0
20260502160105 75 186 0.0 0.9 0.00 0.00 0.00 43 1021.9
20260502151556 74 256 0.0 4.3 0.00 0.00 0.00 45 1022.3
20260502123054 73 245 0.0 1.7 0.00 0.00 0.00 46 1024.7
20260502121517 72 177 0.0 0.9 0.00 0.00 0.00 47 1024.9
20260502114542 71 146 0.0 0.0 0.00 0.00 0.00 46 1025.4
20260502113008 71 179 0.0 0.0 0.00 0.00 0.00 45 1025.6
20260502111535 69 246 0.9 4.3 0.00 0.00 0.00 46 1025.8
20260502110057 68 267 0.0 7.8 0.00 0.00 0.00 50 1026.1
20260502104511 69 251 0.9 7.0 0.00 0.00 0.00 48 1026.2
20260502103022 68 239 0.0 6.1 0.00 0.00 0.00 50 1026.6
20260502101534 68 246 0.9 4.3 0.00 0.00 0.00 51 1026.8
20260502091509 66 235 0.0 3.5 0.00 0.00 0.00 63 1027.8
20260502070114 59 346 0.0 0.0 0.00 0.00 0.00 74 1028.5
20260502064526 57 317 0.0 0.0 0.00 0.00 0.00 77 1028.5
20260502063056 57 8 0.0 0.9 0.00 0.00 0.00 77 1028.6
20260502061517 55 307 0.0 0.9 0.00 0.00 0.00 81 1028.5
20260502060018 54 226 0.0 0.0 0.00 0.00 0.00 83 1028.7
20260502054536 53 216 0.0 0.0 0.00 0.00 0.00 83 1028.8
20260502053048 52 216 0.0 0.0 0.00 0.00 0.00 81 1028.5
20260502051509 50 216 0.0 0.0 0.00 0.00 0.00 84 1028.5
20260502050034 48 216 0.0 0.0 0.00 0.00 0.00 88 1028.6
20260502044552 46 216 0.0 0.0 0.00 0.00 0.00 89 1028.6
20260502043101 46 216 0.0 0.0 0.00 0.00 0.00 89 1028.6
20260502041509 46 216 0.0 0.0 0.00 0.00 0.00 89 1028.5
20260502040026 46 216 0.0 0.0 0.00 0.00 0.00 89 1028.3
20260502034554 46 216 0.0 0.0 0.00 0.00 0.00 88 1028.3
20260502033018 47 216 0.0 0.0 0.00 0.00 0.00 87 1028.3
20260502031550 47 216 0.0 0.0 0.00 0.00 0.00 86 1028.2
20260502030105 48 216 0.0 0.0 0.00 0.00 0.00 84 1028.3
20260502024527 48 216 0.0 0.0 0.00 0.00 0.00 84 1028.2
20260502023026 47 216 0.0 0.0 0.00 0.00 0.00 85 1028.2
20260502021554 47 216 0.0 0.0 0.00 0.00 0.00 87 1028.2
20260502020002 47 216 0.0 0.0 0.00 0.00 0.00 89 1028.0
20260502014535 46 216 0.0 0.0 0.00 0.00 0.00 88 1027.9
20260502013108 46 216 0.0 0.0 0.00 0.00 0.00 87 1027.9
20260502011522 47 216 0.0 0.0 0.00 0.00 0.00 86 1028.0
20260502010104 48 216 0.0 0.0 0.00 0.00 0.00 85 1028.1
20260502004602 48 216 0.0 0.0 0.00 0.00 0.00 85 1028.1
20260502003028 48 216 0.0 0.0 0.00 0.00 0.00 86 1028.0
20260502001548 48 216 0.0 0.0 0.00 0.00 0.00 85 1028.0
20260502000120 48 216 0.0 0.0 0.00 0.00 0.00 85 1028.2
20260501234521 48 216 0.0 0.0 0.00 0.00 0.00 85 1028.0
20260501233034 48 216 0.0 0.0 0.00 0.00 0.00 85 1028.1
20260501231608 49 216 0.0 0.0 0.00 0.00 0.00 84 1028.0
20260501230101 49 216 0.0 0.0 0.00 0.00 0.00 84 1027.9
20260501224531 49 216 0.0 0.0 0.00 0.00 0.00 83 1027.9
20260501223036 49 216 0.0 0.0 0.00 0.00 0.00 82 1028.0
20260501221503 50 216 0.0 0.0 0.00 0.00 0.00 81 1027.9